Year,Month,Day,Hour,Minute,Value (Times are PST for temperature in C)
2018,08,19,00,00,14.20
2018,08,19,00,01,14.20
2018,08,19,00,02,14.20
2018,08,19,00,03,14.10
2018,08,19,00,04,14.10
2018,08,19,00,05,14.10
2018,08,19,00,06,14.10
2018,08,19,00,07,14.10
2018,08,19,00,08,14.10
2018,08,19,00,09,14.10
2018,08,19,00,10,14.00
2018,08,19,00,11,14.00
2018,08,19,00,12,14.00
2018,08,19,00,13,14.00
2018,08,19,00,14,14.00
2018,08,19,00,15,14.00
2018,08,19,00,16,14.00
2018,08,19,00,17,13.90
2018,08,19,00,18,13.90
2018,08,19,00,19,13.90
2018,08,19,00,20,13.90
2018,08,19,00,21,13.90
2018,08,19,00,22,13.90
2018,08,19,00,23,13.90
2018,08,19,00,24,13.80
2018,08,19,00,25,13.80
2018,08,19,00,26,13.80
2018,08,19,00,27,13.80
2018,08,19,00,28,13.80
2018,08,19,00,29,13.70
2018,08,19,00,30,13.70
2018,08,19,00,31,13.70
2018,08,19,00,32,13.70
2018,08,19,00,33,13.70
2018,08,19,00,34,13.70
2018,08,19,00,35,13.70
2018,08,19,00,36,13.70
2018,08,19,00,37,13.70
2018,08,19,00,38,13.70
2018,08,19,00,39,13.70
2018,08,19,00,40,13.70
2018,08,19,00,41,13.60
2018,08,19,00,42,13.60
2018,08,19,00,43,13.70
2018,08,19,00,44,13.60
2018,08,19,00,45,13.60
2018,08,19,00,46,13.60
2018,08,19,00,47,13.60
2018,08,19,00,48,13.60
2018,08,19,00,49,13.60
2018,08,19,00,50,13.60
2018,08,19,00,51,13.60
2018,08,19,00,52,13.60
2018,08,19,00,53,13.60
2018,08,19,00,54,13.60
2018,08,19,00,55,13.50
2018,08,19,00,56,13.50
2018,08,19,00,57,13.50
2018,08,19,00,58,13.50
2018,08,19,00,59,13.40
2018,08,19,01,00,13.40
2018,08,19,01,01,13.40
2018,08,19,01,02,13.40
2018,08,19,01,03,13.40
2018,08,19,01,04,13.40
2018,08,19,01,05,13.30
2018,08,19,01,06,13.30
2018,08,19,01,07,13.30
2018,08,19,01,08,13.30
2018,08,19,01,09,13.30
2018,08,19,01,10,13.30
2018,08,19,01,11,13.30
2018,08,19,01,12,13.30
2018,08,19,01,13,13.20
2018,08,19,01,14,13.20
2018,08,19,01,15,13.20
2018,08,19,01,16,13.20
2018,08,19,01,17,13.20
2018,08,19,01,18,13.20
2018,08,19,01,19,13.20
2018,08,19,01,20,13.10
2018,08,19,01,21,13.10
2018,08,19,01,22,13.10
2018,08,19,01,23,13.10
2018,08,19,01,24,13.10
2018,08,19,01,25,13.10
2018,08,19,01,26,13.00
2018,08,19,01,27,13.00
2018,08,19,01,28,13.00
2018,08,19,01,29,13.00
2018,08,19,01,30,13.00
2018,08,19,01,31,13.00
2018,08,19,01,32,12.90
2018,08,19,01,33,12.90
2018,08,19,01,34,12.90
2018,08,19,01,35,12.90
2018,08,19,01,36,12.90
2018,08,19,01,37,12.90
2018,08,19,01,38,12.90
2018,08,19,01,39,12.90
2018,08,19,01,40,12.90
2018,08,19,01,41,12.80
2018,08,19,01,42,12.80
2018,08,19,01,43,12.80
2018,08,19,01,44,12.80
2018,08,19,01,45,12.80
2018,08,19,01,46,12.80
2018,08,19,01,47,12.80
2018,08,19,01,48,12.80
2018,08,19,01,49,12.80
2018,08,19,01,50,12.70
2018,08,19,01,51,12.70
2018,08,19,01,52,12.70
2018,08,19,01,53,12.70
2018,08,19,01,54,12.70
2018,08,19,01,55,12.70
2018,08,19,01,56,12.70
2018,08,19,01,57,12.70
2018,08,19,01,58,12.70
2018,08,19,01,59,12.70
2018,08,19,02,00,12.60
2018,08,19,02,01,12.60
2018,08,19,02,02,12.60
2018,08,19,02,03,12.60
2018,08,19,02,04,12.60
2018,08,19,02,05,12.60
2018,08,19,02,06,12.60
2018,08,19,02,07,12.60
2018,08,19,02,08,12.60
2018,08,19,02,09,12.60
2018,08,19,02,10,12.60
2018,08,19,02,11,12.60
2018,08,19,02,12,12.50
2018,08,19,02,13,12.50
2018,08,19,02,14,12.50
2018,08,19,02,15,12.50
2018,08,19,02,16,12.50
2018,08,19,02,17,12.50
2018,08,19,02,18,12.50
2018,08,19,02,19,12.50
2018,08,19,02,20,12.40
2018,08,19,02,21,12.40
2018,08,19,02,22,12.40
2018,08,19,02,23,12.40
2018,08,19,02,24,12.40
2018,08,19,02,25,12.40
2018,08,19,02,26,12.30
2018,08,19,02,27,12.30
2018,08,19,02,28,12.30
2018,08,19,02,29,12.30
2018,08,19,02,30,12.30
2018,08,19,02,31,12.30
2018,08,19,02,32,12.30
2018,08,19,02,33,12.30
2018,08,19,02,34,12.30
2018,08,19,02,35,12.30
2018,08,19,02,36,12.30
2018,08,19,02,37,12.30
2018,08,19,02,38,12.30
2018,08,19,02,39,12.30
2018,08,19,02,40,12.30
2018,08,19,02,41,12.30
2018,08,19,02,42,12.30
2018,08,19,02,43,12.30
2018,08,19,02,44,12.30
2018,08,19,02,45,12.30
2018,08,19,02,46,12.30
2018,08,19,02,47,12.20
2018,08,19,02,48,12.20
2018,08,19,02,49,12.20
2018,08,19,02,50,12.20
2018,08,19,02,51,12.20
2018,08,19,02,52,12.20
2018,08,19,02,53,12.20
2018,08,19,02,54,12.20
2018,08,19,02,55,12.20
2018,08,19,02,56,12.20
2018,08,19,02,57,12.20
2018,08,19,02,58,12.20
2018,08,19,02,59,12.20
2018,08,19,03,00,12.10
2018,08,19,03,01,12.10
2018,08,19,03,02,12.10
2018,08,19,03,03,12.10
2018,08,19,03,04,12.10
2018,08,19,03,05,12.10
2018,08,19,03,06,12.10
2018,08,19,03,07,12.10
2018,08,19,03,08,12.10
2018,08,19,03,09,12.10
2018,08,19,03,10,12.10
2018,08,19,03,11,12.10
2018,08,19,03,12,12.10
2018,08,19,03,13,12.10
2018,08,19,03,14,12.10
2018,08,19,03,15,12.10
2018,08,19,03,16,12.10
2018,08,19,03,17,12.10
2018,08,19,03,18,12.10
2018,08,19,03,19,12.10
2018,08,19,03,20,12.10
2018,08,19,03,21,12.10
2018,08,19,03,22,12.10
2018,08,19,03,23,12.10
2018,08,19,03,24,12.10
2018,08,19,03,25,12.00
2018,08,19,03,26,12.00
2018,08,19,03,27,12.00
2018,08,19,03,28,12.00
2018,08,19,03,29,12.00
2018,08,19,03,30,12.00
2018,08,19,03,31,12.00
2018,08,19,03,32,12.00
2018,08,19,03,33,12.00
2018,08,19,03,34,12.00
2018,08,19,03,35,12.00
2018,08,19,03,36,12.00
2018,08,19,03,37,12.00
2018,08,19,03,38,12.00
2018,08,19,03,39,12.00
2018,08,19,03,40,12.00
2018,08,19,03,41,12.00
2018,08,19,03,42,12.00
2018,08,19,03,43,11.90
2018,08,19,03,44,11.90
2018,08,19,03,45,11.90
2018,08,19,03,46,11.90
2018,08,19,03,47,11.90
2018,08,19,03,48,11.90
2018,08,19,03,49,11.90
2018,08,19,03,50,11.90
2018,08,19,03,51,11.90
2018,08,19,03,52,11.90
2018,08,19,03,53,11.90
2018,08,19,03,54,11.90
2018,08,19,03,55,11.90
2018,08,19,03,56,11.90
2018,08,19,03,57,11.90
2018,08,19,03,58,11.90
2018,08,19,03,59,11.90
2018,08,19,04,00,11.90
2018,08,19,04,01,11.90
2018,08,19,04,02,11.90
2018,08,19,04,03,11.80
2018,08,19,04,04,11.80
2018,08,19,04,05,11.80
2018,08,19,04,06,11.80
2018,08,19,04,07,11.80
2018,08,19,04,08,11.80
2018,08,19,04,09,11.80
2018,08,19,04,10,11.80
2018,08,19,04,11,11.80
2018,08,19,04,12,11.80
2018,08,19,04,13,11.80
2018,08,19,04,14,11.80
2018,08,19,04,15,11.80
2018,08,19,04,16,11.80
2018,08,19,04,17,11.80
2018,08,19,04,18,11.80
2018,08,19,04,19,11.80
2018,08,19,04,20,11.80
2018,08,19,04,21,11.80
2018,08,19,04,22,11.80
2018,08,19,04,23,11.80
2018,08,19,04,24,11.80
2018,08,19,04,25,11.80
2018,08,19,04,26,11.80
2018,08,19,04,27,11.70
2018,08,19,04,28,11.70
2018,08,19,04,29,11.70
2018,08,19,04,30,11.70
2018,08,19,04,31,11.70
2018,08,19,04,32,11.70
2018,08,19,04,33,11.70
2018,08,19,04,34,11.70
2018,08,19,04,35,11.70
2018,08,19,04,36,11.70
2018,08,19,04,37,11.70
2018,08,19,04,38,11.70
2018,08,19,04,39,11.70
2018,08,19,04,40,11.70
2018,08,19,04,41,11.70
2018,08,19,04,42,11.70
2018,08,19,04,43,11.70
2018,08,19,04,44,11.70
2018,08,19,04,45,11.70
2018,08,19,04,46,11.70
2018,08,19,04,47,11.70
2018,08,19,04,48,11.70
2018,08,19,04,49,11.70
2018,08,19,04,50,11.70
2018,08,19,04,51,11.70
2018,08,19,04,52,11.70
2018,08,19,04,53,11.70
2018,08,19,04,54,11.70
2018,08,19,04,55,11.70
2018,08,19,04,56,11.70
2018,08,19,04,57,11.70
2018,08,19,04,58,11.70
2018,08,19,04,59,11.70
2018,08,19,05,00,11.70
2018,08,19,05,01,11.70
2018,08,19,05,02,11.70
2018,08,19,05,03,11.70
2018,08,19,05,04,11.70
2018,08,19,05,05,11.70
2018,08,19,05,06,11.70
2018,08,19,05,07,11.70
2018,08,19,05,08,11.70
2018,08,19,05,09,11.70
2018,08,19,05,10,11.70
2018,08,19,05,11,11.70
2018,08,19,05,12,11.70
2018,08,19,05,13,11.70
2018,08,19,05,14,11.70
2018,08,19,05,15,11.70
2018,08,19,05,16,11.60
2018,08,19,05,17,11.60
2018,08,19,05,18,11.60
2018,08,19,05,19,11.60
2018,08,19,05,20,11.60
2018,08,19,05,21,11.60
2018,08,19,05,22,11.60
2018,08,19,05,23,11.60
2018,08,19,05,24,11.60
2018,08,19,05,25,11.60
2018,08,19,05,26,11.60
2018,08,19,05,27,11.60
2018,08,19,05,28,11.60
2018,08,19,05,29,11.60
2018,08,19,05,30,11.60
2018,08,19,05,31,11.60
2018,08,19,05,32,11.60
2018,08,19,05,33,11.60
2018,08,19,05,34,11.50
2018,08,19,05,35,11.50
2018,08,19,05,36,11.50
2018,08,19,05,37,11.50
2018,08,19,05,38,11.50
2018,08,19,05,39,11.50
2018,08,19,05,40,11.50
2018,08,19,05,41,11.50
2018,08,19,05,42,11.50
2018,08,19,05,43,11.50
2018,08,19,05,44,11.50
2018,08,19,05,45,11.50
2018,08,19,05,46,11.40
2018,08,19,05,47,11.40
2018,08,19,05,48,11.40
2018,08,19,05,49,11.40
2018,08,19,05,50,11.40
2018,08,19,05,51,11.40
2018,08,19,05,52,11.40
2018,08,19,05,53,11.40
2018,08,19,05,54,11.40
2018,08,19,05,55,11.40
2018,08,19,05,56,11.40
2018,08,19,05,57,11.40
2018,08,19,05,58,11.40
2018,08,19,05,59,11.40
2018,08,19,06,00,11.40
2018,08,19,06,01,11.40
2018,08,19,06,02,11.40
2018,08,19,06,03,11.40
2018,08,19,06,04,11.40
2018,08,19,06,05,11.40
2018,08,19,06,06,11.40
2018,08,19,06,07,11.40
2018,08,19,06,08,11.40
2018,08,19,06,09,11.40
2018,08,19,06,10,11.40
2018,08,19,06,11,11.40
2018,08,19,06,12,11.30
2018,08,19,06,13,11.30
2018,08,19,06,14,11.30
2018,08,19,06,15,11.30
2018,08,19,06,16,11.30
2018,08,19,06,17,11.30
2018,08,19,06,18,11.30
2018,08,19,06,19,11.30
2018,08,19,06,20,11.30
2018,08,19,06,21,11.30
2018,08,19,06,22,11.30
2018,08,19,06,23,11.30
2018,08,19,06,24,11.30
2018,08,19,06,25,11.30
2018,08,19,06,26,11.30
2018,08,19,06,27,11.30
2018,08,19,06,28,11.30
2018,08,19,06,29,11.30
2018,08,19,06,30,11.30
2018,08,19,06,31,11.30
2018,08,19,06,32,11.30
2018,08,19,06,33,11.30
2018,08,19,06,34,11.30
2018,08,19,06,35,11.30
2018,08,19,06,36,11.30
2018,08,19,06,37,11.30
2018,08,19,06,38,11.30
2018,08,19,06,39,11.30
2018,08,19,06,40,11.30
2018,08,19,06,41,11.30
2018,08,19,06,42,11.30
2018,08,19,06,43,11.30
2018,08,19,06,44,11.20
2018,08,19,06,45,11.20
2018,08,19,06,46,11.20
2018,08,19,06,47,11.20
2018,08,19,06,48,11.20
2018,08,19,06,49,11.20
2018,08,19,06,50,11.20
2018,08,19,06,51,11.20
2018,08,19,06,52,11.20
2018,08,19,06,53,11.20
2018,08,19,06,54,11.20
2018,08,19,06,55,11.20
2018,08,19,06,56,11.20
2018,08,19,06,57,11.20
2018,08,19,06,58,11.20
2018,08,19,06,59,11.20
2018,08,19,07,00,11.20
2018,08,19,07,01,11.20
2018,08,19,07,02,11.20
2018,08,19,07,03,11.20
2018,08,19,07,04,11.20
2018,08,19,07,05,11.20
2018,08,19,07,06,11.20
2018,08,19,07,07,11.20
2018,08,19,07,08,11.20
2018,08,19,07,09,11.20
2018,08,19,07,10,11.20
2018,08,19,07,11,11.20
2018,08,19,07,12,11.30
2018,08,19,07,13,11.30
2018,08,19,07,14,11.30
2018,08,19,07,15,11.30
2018,08,19,07,16,11.30
2018,08,19,07,17,11.30
2018,08,19,07,18,11.30
2018,08,19,07,19,11.30
2018,08,19,07,20,11.30
2018,08,19,07,21,11.40
2018,08,19,07,22,11.40
2018,08,19,07,23,11.40
2018,08,19,07,24,11.40
2018,08,19,07,25,11.40
2018,08,19,07,26,11.40
2018,08,19,07,27,11.40
2018,08,19,07,28,11.40
2018,08,19,07,29,11.40
2018,08,19,07,30,11.50
2018,08,19,07,31,11.50
2018,08,19,07,32,11.50
2018,08,19,07,33,11.50
2018,08,19,07,34,11.50
2018,08,19,07,35,11.50
2018,08,19,07,36,11.60
2018,08,19,07,37,11.60
2018,08,19,07,38,11.60
2018,08,19,07,39,11.60
2018,08,19,07,40,11.60
2018,08,19,07,41,11.60
2018,08,19,07,42,11.60
2018,08,19,07,43,11.70
2018,08,19,07,44,11.70
2018,08,19,07,45,11.70
2018,08,19,07,46,11.70
2018,08,19,07,47,11.70
2018,08,19,07,48,11.70
2018,08,19,07,49,11.70
2018,08,19,07,50,11.80
2018,08,19,07,51,11.80
2018,08,19,07,52,11.80
2018,08,19,07,53,11.80
2018,08,19,07,54,11.90
2018,08,19,07,55,11.90
2018,08,19,07,56,11.90
2018,08,19,07,57,12.00
2018,08,19,07,58,12.00
2018,08,19,07,59,12.00
2018,08,19,08,00,12.10
2018,08,19,08,01,12.10
2018,08,19,08,02,12.10
2018,08,19,08,03,12.10
2018,08,19,08,04,12.20
2018,08,19,08,05,12.20
2018,08,19,08,06,12.20
2018,08,19,08,07,12.30
2018,08,19,08,08,12.30
2018,08,19,08,09,12.30
2018,08,19,08,10,12.40
2018,08,19,08,11,12.40
2018,08,19,08,12,12.40
2018,08,19,08,13,12.40
2018,08,19,08,14,12.50
2018,08,19,08,15,12.50
2018,08,19,08,16,12.60
2018,08,19,08,17,12.60
2018,08,19,08,18,12.60
2018,08,19,08,19,12.70
2018,08,19,08,20,12.70
2018,08,19,08,21,12.70
2018,08,19,08,22,12.80
2018,08,19,08,23,12.80
2018,08,19,08,24,12.90
2018,08,19,08,25,12.90
2018,08,19,08,26,12.90
2018,08,19,08,27,13.00
2018,08,19,08,28,13.00
2018,08,19,08,29,13.10
2018,08,19,08,30,13.10
2018,08,19,08,31,13.20
2018,08,19,08,32,13.20
2018,08,19,08,33,13.30
2018,08,19,08,34,13.30
2018,08,19,08,35,13.30
2018,08,19,08,36,13.40
2018,08,19,08,37,13.40
2018,08,19,08,38,13.50
2018,08,19,08,39,13.50
2018,08,19,08,40,13.60
2018,08,19,08,41,13.60
2018,08,19,08,42,13.70
2018,08,19,08,43,13.70
2018,08,19,08,44,13.80
2018,08,19,08,45,13.80
2018,08,19,08,46,13.90
2018,08,19,08,47,14.00
2018,08,19,08,48,14.00
2018,08,19,08,49,14.10
2018,08,19,08,50,14.20
2018,08,19,08,51,14.20
2018,08,19,08,52,14.30
2018,08,19,08,53,14.30
2018,08,19,08,54,14.40
2018,08,19,08,55,14.40
2018,08,19,08,56,14.50
2018,08,19,08,57,14.60
2018,08,19,08,58,14.60
2018,08,19,08,59,14.70
2018,08,19,09,00,14.70
2018,08,19,09,01,14.70
2018,08,19,09,02,14.80
2018,08,19,09,03,14.80
2018,08,19,09,04,14.80
2018,08,19,09,05,14.90
2018,08,19,09,06,14.90
2018,08,19,09,07,15.00
2018,08,19,09,08,15.00
2018,08,19,09,09,15.00
2018,08,19,09,10,15.10
2018,08,19,09,11,15.10
2018,08,19,09,12,15.10
2018,08,19,09,13,15.10
2018,08,19,09,14,15.20
2018,08,19,09,15,15.20
2018,08,19,09,16,15.30
2018,08,19,09,17,15.30
2018,08,19,09,18,15.40
2018,08,19,09,19,15.50
2018,08,19,09,20,15.50
2018,08,19,09,21,15.60
2018,08,19,09,22,15.70
2018,08,19,09,23,15.70
2018,08,19,09,24,15.70
2018,08,19,09,25,15.80
2018,08,19,09,26,15.80
2018,08,19,09,27,15.90
2018,08,19,09,28,15.90
2018,08,19,09,29,16.00
2018,08,19,09,30,16.00
2018,08,19,09,31,16.10
2018,08,19,09,32,16.10
2018,08,19,09,33,16.20
2018,08,19,09,34,16.20
2018,08,19,09,35,16.30
2018,08,19,09,36,16.30
2018,08,19,09,37,16.40
2018,08,19,09,38,16.50
2018,08,19,09,39,16.50
2018,08,19,09,40,16.60
2018,08,19,09,41,16.70
2018,08,19,09,42,16.80
2018,08,19,09,43,16.90
2018,08,19,09,44,17.00
2018,08,19,09,45,17.00
2018,08,19,09,46,17.10
2018,08,19,09,47,17.20
2018,08,19,09,48,17.30
2018,08,19,09,49,17.30
2018,08,19,09,50,17.40
2018,08,19,09,51,17.50
2018,08,19,09,52,17.50
2018,08,19,09,53,17.60
2018,08,19,09,54,17.70
2018,08,19,09,55,17.80
2018,08,19,09,56,17.80
2018,08,19,09,57,17.90
2018,08,19,09,58,18.00
2018,08,19,09,59,18.00
2018,08,19,10,00,18.10
2018,08,19,10,01,18.20
2018,08,19,10,02,18.30
2018,08,19,10,03,18.30
2018,08,19,10,04,18.40
2018,08,19,10,05,18.40
2018,08,19,10,06,18.50
2018,08,19,10,07,18.50
2018,08,19,10,08,18.60
2018,08,19,10,09,18.60
2018,08,19,10,10,18.70
2018,08,19,10,11,18.70
2018,08,19,10,12,18.70
2018,08,19,10,13,18.80
2018,08,19,10,14,18.90
2018,08,19,10,15,18.90
2018,08,19,10,16,18.90
2018,08,19,10,17,19.00
2018,08,19,10,18,19.10
2018,08,19,10,19,19.10
2018,08,19,10,20,19.20
2018,08,19,10,21,19.20
2018,08,19,10,22,19.20
2018,08,19,10,23,19.30
2018,08,19,10,24,19.30
2018,08,19,10,25,19.40
2018,08,19,10,26,19.40
2018,08,19,10,27,19.50
2018,08,19,10,28,19.50
2018,08,19,10,29,19.60
2018,08,19,10,30,19.60
2018,08,19,10,31,19.70
2018,08,19,10,32,19.70
2018,08,19,10,33,19.70
2018,08,19,10,34,19.70
2018,08,19,10,35,19.70
2018,08,19,10,36,19.80
2018,08,19,10,37,19.80
2018,08,19,10,38,19.80
2018,08,19,10,39,19.90
2018,08,19,10,40,19.90
2018,08,19,10,41,20.00
2018,08,19,10,42,20.00
2018,08,19,10,43,20.10
2018,08,19,10,44,20.10
2018,08,19,10,45,20.10
2018,08,19,10,46,20.10
2018,08,19,10,47,20.10
2018,08,19,10,48,20.10
2018,08,19,10,49,20.10
2018,08,19,10,50,20.10
2018,08,19,10,51,20.20
2018,08,19,10,52,20.20
2018,08,19,10,53,20.20
2018,08,19,10,54,20.20
2018,08,19,10,55,20.20
2018,08,19,10,56,20.30
2018,08,19,10,57,20.30
2018,08,19,10,58,20.30
2018,08,19,10,59,20.30
2018,08,19,11,00,20.40
2018,08,19,11,01,20.40
2018,08,19,11,02,20.40
2018,08,19,11,03,20.50
2018,08,19,11,04,20.50
2018,08,19,11,05,20.60
2018,08,19,11,06,20.70
2018,08,19,11,07,20.70
2018,08,19,11,08,20.80
2018,08,19,11,09,20.80
2018,08,19,11,10,20.90
2018,08,19,11,11,20.90
2018,08,19,11,12,20.90
2018,08,19,11,13,20.90
2018,08,19,11,14,20.90
2018,08,19,11,15,20.90
2018,08,19,11,16,20.90
2018,08,19,11,17,21.00
2018,08,19,11,18,21.00
2018,08,19,11,19,21.10
2018,08,19,11,20,21.10
2018,08,19,11,21,21.20
2018,08,19,11,22,21.20
2018,08,19,11,23,21.20
2018,08,19,11,24,21.30
2018,08,19,11,25,21.30
2018,08,19,11,26,21.40
2018,08,19,11,27,21.40
2018,08,19,11,28,21.40
2018,08,19,11,29,21.40
2018,08,19,11,30,21.40
2018,08,19,11,31,21.40
2018,08,19,11,32,21.40
2018,08,19,11,33,21.50
2018,08,19,11,34,21.50
2018,08,19,11,35,21.60
2018,08,19,11,36,21.70
2018,08,19,11,37,21.70
2018,08,19,11,38,21.80
2018,08,19,11,39,21.80
2018,08,19,11,40,21.90
2018,08,19,11,41,21.90
2018,08,19,11,42,21.90
2018,08,19,11,43,22.00
2018,08,19,11,44,22.00
2018,08,19,11,45,22.00
2018,08,19,11,46,22.00
2018,08,19,11,47,22.00
2018,08,19,11,48,22.00
2018,08,19,11,49,22.10
2018,08,19,11,50,22.10
2018,08,19,11,51,22.10
2018,08,19,11,52,22.10
2018,08,19,11,53,22.20
2018,08,19,11,54,22.20
2018,08,19,11,55,22.30
2018,08,19,11,56,22.30
2018,08,19,11,57,22.40
2018,08,19,11,58,22.50
2018,08,19,11,59,22.60
2018,08,19,12,00,22.60
2018,08,19,12,01,22.70
2018,08,19,12,02,22.70
2018,08,19,12,03,22.70
2018,08,19,12,04,22.70
2018,08,19,12,05,22.80
2018,08,19,12,06,22.80
2018,08,19,12,07,22.80
2018,08,19,12,08,22.90
2018,08,19,12,09,23.00
2018,08,19,12,10,23.00
2018,08,19,12,11,23.10
2018,08,19,12,12,23.10
2018,08,19,12,13,23.10
2018,08,19,12,14,23.20
2018,08,19,12,15,23.20
2018,08,19,12,16,23.30
2018,08,19,12,17,23.30
2018,08,19,12,18,23.30
2018,08,19,12,19,23.40
2018,08,19,12,20,23.40
2018,08,19,12,21,23.40
2018,08,19,12,22,23.50
2018,08,19,12,23,23.50
2018,08,19,12,24,23.60
2018,08,19,12,25,23.60
2018,08,19,12,26,23.60
2018,08,19,12,27,23.60
2018,08,19,12,28,23.60
2018,08,19,12,29,23.60
2018,08,19,12,30,23.60
2018,08,19,12,31,23.60
2018,08,19,12,32,23.70
2018,08,19,12,33,23.70
2018,08,19,12,34,23.70
2018,08,19,12,35,23.80
2018,08,19,12,36,23.80
2018,08,19,12,37,23.80
2018,08,19,12,38,23.80
2018,08,19,12,39,23.80
2018,08,19,12,40,23.80
2018,08,19,12,41,23.70
2018,08,19,12,42,23.70
2018,08,19,12,43,23.70
2018,08,19,12,44,23.70
2018,08,19,12,45,23.80
2018,08,19,12,46,23.80
2018,08,19,12,47,23.90
2018,08,19,12,48,23.90
2018,08,19,12,49,23.80
2018,08,19,12,50,23.80
2018,08,19,12,51,23.80
2018,08,19,12,52,23.80
2018,08,19,12,53,23.80
2018,08,19,12,54,23.80
2018,08,19,12,55,23.80
2018,08,19,12,56,23.70
2018,08,19,12,57,23.70
2018,08,19,12,58,23.70
2018,08,19,12,59,23.70
2018,08,19,13,00,23.80
2018,08,19,13,01,23.70
2018,08,19,13,02,23.70
2018,08,19,13,03,23.70
2018,08,19,13,04,23.70
2018,08,19,13,05,23.70
2018,08,19,13,06,23.70
2018,08,19,13,07,23.70
2018,08,19,13,08,23.80
2018,08,19,13,09,23.80
2018,08,19,13,10,23.80
2018,08,19,13,11,23.80
2018,08,19,13,12,23.90
2018,08,19,13,13,23.90
2018,08,19,13,14,24.00
2018,08,19,13,15,24.00
2018,08,19,13,16,24.10
2018,08,19,13,17,24.20
2018,08,19,13,18,24.20
2018,08,19,13,19,24.30
2018,08,19,13,20,24.30
2018,08,19,13,21,24.30
2018,08,19,13,22,24.30
2018,08,19,13,23,24.30
2018,08,19,13,24,24.30
2018,08,19,13,25,24.30
2018,08,19,13,26,24.30
2018,08,19,13,27,24.40
2018,08,19,13,28,24.40
2018,08,19,13,29,24.40
2018,08,19,13,30,24.40
2018,08,19,13,31,24.40
2018,08,19,13,32,24.40
2018,08,19,13,33,24.50
2018,08,19,13,34,24.60
2018,08,19,13,35,24.70
2018,08,19,13,36,24.70
2018,08,19,13,37,24.80
2018,08,19,13,38,24.80
2018,08,19,13,39,24.80
2018,08,19,13,40,24.80
2018,08,19,13,41,24.80
2018,08,19,13,42,24.80
2018,08,19,13,43,24.80
2018,08,19,13,44,24.80
2018,08,19,13,45,24.80
2018,08,19,13,46,24.80
2018,08,19,13,47,24.90
2018,08,19,13,48,24.90
2018,08,19,13,49,24.90
2018,08,19,13,50,25.00
2018,08,19,13,51,25.10
2018,08,19,13,52,25.10
2018,08,19,13,53,25.10
2018,08,19,13,54,25.20
2018,08,19,13,55,25.20
2018,08,19,13,56,25.30
2018,08,19,13,57,25.30
2018,08,19,13,58,25.30
2018,08,19,13,59,25.30
2018,08,19,14,00,25.40
2018,08,19,14,01,25.40
2018,08,19,14,02,25.40
2018,08,19,14,03,25.40
2018,08,19,14,04,25.40
2018,08,19,14,05,25.50
2018,08,19,14,06,25.50
2018,08,19,14,07,25.60
2018,08,19,14,08,25.60
2018,08,19,14,09,25.60
2018,08,19,14,10,25.60
2018,08,19,14,11,25.60
2018,08,19,14,12,25.60
2018,08,19,14,13,25.60
2018,08,19,14,14,25.60
2018,08,19,14,15,25.60
2018,08,19,14,16,25.60
2018,08,19,14,17,25.70
2018,08,19,14,18,25.70
2018,08,19,14,19,25.70
2018,08,19,14,20,25.70
2018,08,19,14,21,25.80
2018,08,19,14,22,25.80
2018,08,19,14,23,25.80
2018,08,19,14,24,25.80
2018,08,19,14,25,25.90
2018,08,19,14,26,25.90
2018,08,19,14,27,25.90
2018,08,19,14,28,25.90
2018,08,19,14,29,25.90
2018,08,19,14,30,25.90
2018,08,19,14,31,26.00
2018,08,19,14,32,26.00
2018,08,19,14,33,26.00
2018,08,19,14,34,26.10
2018,08,19,14,35,26.10
2018,08,19,14,36,26.10
2018,08,19,14,37,26.10
2018,08,19,14,38,26.10
2018,08,19,14,39,26.00
2018,08,19,14,40,26.00
2018,08,19,14,41,25.90
2018,08,19,14,42,25.90
2018,08,19,14,43,25.80
2018,08,19,14,44,25.70
2018,08,19,14,45,25.70
2018,08,19,14,46,25.60
2018,08,19,14,47,25.50
2018,08,19,14,48,25.50
2018,08,19,14,49,25.50
2018,08,19,14,50,25.40
2018,08,19,14,51,25.40
2018,08,19,14,52,25.40
2018,08,19,14,53,25.40
2018,08,19,14,54,25.40
2018,08,19,14,55,25.40
2018,08,19,14,56,25.40
2018,08,19,14,57,25.40
2018,08,19,14,58,25.30
2018,08,19,14,59,25.30
2018,08,19,15,00,25.20
2018,08,19,15,01,25.20
2018,08,19,15,02,25.20
2018,08,19,15,03,25.10
2018,08,19,15,04,25.00
2018,08,19,15,05,25.00
2018,08,19,15,06,24.90
2018,08,19,15,07,24.90
2018,08,19,15,08,24.80
2018,08,19,15,09,24.70
2018,08,19,15,10,24.60
2018,08,19,15,11,24.50
2018,08,19,15,12,24.30
2018,08,19,15,13,24.20
2018,08,19,15,14,24.10
2018,08,19,15,15,24.00
2018,08,19,15,16,24.00
2018,08,19,15,17,23.90
2018,08,19,15,18,23.70
2018,08,19,15,19,23.70
2018,08,19,15,20,23.60
2018,08,19,15,21,23.40
2018,08,19,15,22,23.40
2018,08,19,15,23,23.30
2018,08,19,15,24,23.20
2018,08,19,15,25,23.20
2018,08,19,15,26,23.10
2018,08,19,15,27,23.00
2018,08,19,15,28,23.00
2018,08,19,15,29,23.00
2018,08,19,15,30,23.00
2018,08,19,15,31,22.90
2018,08,19,15,32,22.90
2018,08,19,15,33,22.90
2018,08,19,15,34,23.00
2018,08,19,15,35,23.10
2018,08,19,15,36,23.20
2018,08,19,15,37,23.20
2018,08,19,15,38,23.30
2018,08,19,15,39,23.20
2018,08,19,15,40,23.20
2018,08,19,15,41,23.20
2018,08,19,15,42,23.30
2018,08,19,15,43,23.30
2018,08,19,15,44,23.30
2018,08,19,15,45,23.30
2018,08,19,15,46,23.30
2018,08,19,15,47,23.40
2018,08,19,15,48,23.40
2018,08,19,15,49,23.40
2018,08,19,15,50,23.50
2018,08,19,15,51,23.60
2018,08,19,15,52,23.60
2018,08,19,15,53,23.60
2018,08,19,15,54,23.50
2018,08,19,15,55,23.40
2018,08,19,15,56,23.40
2018,08,19,15,57,23.40
2018,08,19,15,58,23.50
2018,08,19,15,59,23.60
2018,08,19,16,00,23.60
2018,08,19,16,01,23.60
2018,08,19,16,02,23.50
2018,08,19,16,03,23.50
2018,08,19,16,04,23.40
2018,08,19,16,05,23.40
2018,08,19,16,06,23.30
2018,08,19,16,07,23.30
2018,08,19,16,08,23.20
2018,08,19,16,09,23.20
2018,08,19,16,10,23.10
2018,08,19,16,11,23.10
2018,08,19,16,12,23.10
2018,08,19,16,13,23.10
2018,08,19,16,14,23.10
2018,08,19,16,15,23.10
2018,08,19,16,16,23.10
2018,08,19,16,17,23.10
2018,08,19,16,18,23.10
2018,08,19,16,19,23.10
2018,08,19,16,20,23.10
2018,08,19,16,21,23.10
2018,08,19,16,22,23.10
2018,08,19,16,23,23.10
2018,08,19,16,24,23.00
2018,08,19,16,25,23.10
2018,08,19,16,26,23.10
2018,08,19,16,27,23.20
2018,08,19,16,28,23.30
2018,08,19,16,29,23.30
2018,08,19,16,30,23.30
2018,08,19,16,31,23.30
2018,08,19,16,32,23.30
2018,08,19,16,33,23.30
2018,08,19,16,34,23.30
2018,08,19,16,35,23.40
2018,08,19,16,36,23.40
2018,08,19,16,37,23.40
2018,08,19,16,38,23.50
2018,08,19,16,39,23.50
2018,08,19,16,40,23.50
2018,08,19,16,41,23.60
2018,08,19,16,42,23.60
2018,08,19,16,43,23.60
2018,08,19,16,44,23.60
2018,08,19,16,45,23.70
2018,08,19,16,46,23.70
2018,08,19,16,47,23.70
2018,08,19,16,48,23.60
2018,08,19,16,49,23.60
2018,08,19,16,50,23.50
2018,08,19,16,51,23.50
2018,08,19,16,52,23.50
2018,08,19,16,53,23.40
2018,08,19,16,54,23.40
2018,08,19,16,55,23.30
2018,08,19,16,56,23.30
2018,08,19,16,57,23.30
2018,08,19,16,58,23.30
2018,08,19,16,59,23.30
2018,08,19,17,00,23.30
2018,08,19,17,01,23.30
2018,08,19,17,02,23.30
2018,08,19,17,03,23.30
2018,08,19,17,04,23.30
2018,08,19,17,05,23.30
2018,08,19,17,06,23.30
2018,08,19,17,07,23.30
2018,08,19,17,08,23.40
2018,08,19,17,09,23.40
2018,08,19,17,10,23.40
2018,08,19,17,11,23.50
2018,08,19,17,12,23.50
2018,08,19,17,13,23.40
2018,08,19,17,14,23.40
2018,08,19,17,15,23.40
2018,08,19,17,16,23.40
2018,08,19,17,17,23.40
2018,08,19,17,18,23.40
2018,08,19,17,19,23.40